This is the latest recevied weather packets stored in our database for station/object YM7KGL-1. If no packets are shown the sender has not sent any weather packets the latest 10 day(s).
| Time | Temp. | Humidity | Pressure | Rain* | Wind** | Luminosity | Snow |
|---|---|---|---|---|---|---|---|
| 1778054802 | 18.89° C | 54% | 1017.1 hPa | - | - | - | - |
| 1778054084 | 18.89° C | 54% | 1017.3 hPa | - | - | - | - |
| 1778053533 | 18.33° C | 54% | 1017.1 hPa | - | - | - | - |
| 1778050479 | 17.22° C | 56% | 1016.9 hPa | - | - | - | - |
| 1778049580 | 16.67° C | 56% | 1016.7 hPa | - | - | - | - |
| 1778048982 | 16.67° C | 56% | 1016.7 hPa | - | - | - | - |
| 1778048082 | 16.11° C | 56% | 1016.7 hPa | - | - | - | - |
| 1778047186 | 15.56° C | 56% | 1016.5 hPa | - | - | - | - |
| 1778047181 | 15.56° C | 57% | 1016.6 hPa | - | - | - | - |
| 1778046281 | 15.56° C | 56% | 1016.5 hPa | - | - | - | - |
| 1778045511 | 15° C | 56% | 1016.5 hPa | - | - | - | - |
| 1778044610 | 15° C | 56% | 1016.5 hPa | - | - | - | - |
| 1778043710 | 14.44° C | 57% | 1016.3 hPa | - | - | - | - |
| 1778042810 | 13.89° C | 57% | 1016.1 hPa | - | - | - | - |
| 1778042236 | 13.89° C | 57% | 1016.1 hPa | - | - | - | - |
| 1778041335 | 13.89° C | 57% | 1016.1 hPa | - | - | - | - |
| 1778040434 | 13.33° C | 57% | 1015.8 hPa | - | - | - | - |
| 1778039534 | 13.33° C | 57% | 1015.7 hPa | - | - | - | - |
| 1778038852 | 13.33° C | 57% | 1015.7 hPa | - | - | - | - |
| 1778037951 | 13.33° C | 57% | 1015.5 hPa | - | - | - | - |
| 1778037051 | 13.33° C | 57% | 1015.4 hPa | - | - | - | - |
| 1778036151 | 13.33° C | 57% | 1015.1 hPa | - | - | - | - |
| 1778035408 | 13.33° C | 57% | 1015 hPa | - | - | - | - |
| 1778034508 | 13.33° C | 57% | 1014.9 hPa | - | - | - | - |
| 1778033607 | 13.33° C | 57% | 1014.8 hPa | - | - | - | - |
* Rain since midnight (hover to see other rain measurements)
** Current wind speed in m/s (hover to see current wind gust speed)